Pecos, TX

3:17 PM CDT on September 28, 2016 (GMT -0500)
Pecos Municipal

Weather History for KPEQ - May, 2014

Change the Weather History Date:

Monday, May 5, 2014

  Actual Average Record
Temperature  
Mean Temperature 74 °F -  
Max Temperature 99 °F 90 °F 106 °F (1947)
Min Temperature 48 °F 52 °F 35 °F (1935)
Cooling Degree Days 8    
Growing Degree Days 24 (Base 50)    
Moisture  
Dew Point 25 °F    
Average Humidity 16    
Maximum Humidity 35    
Minimum Humidity 8    
Precipitation  
Precipitation 0.00 in - - ()
Sea Level Pressure  
Sea Level Pressure 29.88 in    
Wind  
Wind Speed 6 mph (West)    
Max Wind Speed 20 mph    
Max Gust Speed 29 mph    
Visibility 10 miles    
Events      
Averages and records for this station are not official NWS values.
T = Trace of Precipitation, MM = Missing Value Source: NWS Daily Summary

Daily Weather History Graph

Daily Weather History Graph

Search for Another Location

Airport or City:

Trip Planner

Search our weather history database for the weather conditions in past years. The results will help you decide how hot, cold, wet, or windy it might be!

Date:

Astronomy

May. 05, 2014 Rise Set
Actual Time 7:05 AM CDT 8:36 PM CDT
Civil Twilight 6:39 AM CDT 9:02 PM CDT
Nautical Twilight 6:08 AM CDT 9:33 PM CDT
Astronomical Twilight 5:35 AM CDT 10:06 PM CDT
Moon 12:25 PM CDT (5/5) 1:22 AM CDT (5/5)
Length of Visible Light 14h 23m
Length of Day
13h 30m
Waxing Crescent, 37% of the Moon is Illuminated
May 5
Waxing Crescent
May 6
First Quarter
May 14
Full
May 21
Last Quarter
May 28
New

Hourly Weather History & Observations

Time (CDT) Temp. Dew Point Humidity Pressure Visibility Wind Dir Wind Speed Gust Speed Precip Events Conditions
12:15 AM 67.5 °F 16.7 °F 14% 29.93 in 10.0 mi ESE 5.8 mph - N/A   Clear
12:35 AM 65.5 °F 15.8 °F 15% 29.93 in 10.0 mi South 4.6 mph - N/A   Clear
12:55 AM 71.1 °F 21.4 °F 15% 29.92 in 10.0 mi South 10.4 mph - N/A   Clear
1:15 AM 65.7 °F 19.9 °F 17% 29.92 in 10.0 mi South 8.1 mph - N/A   Clear
1:35 AM 63.5 °F 21.6 °F 20% 29.92 in 10.0 mi South 6.9 mph - N/A   Clear
2:15 AM 59.9 °F 21.2 °F 22% 29.92 in 10.0 mi SSW 3.5 mph - N/A   Clear
2:35 AM 59.5 °F 21.2 °F 23% 29.91 in 10.0 mi West 3.5 mph - N/A   Clear
2:55 AM 56.7 °F 21.7 °F 26% 29.91 in 10.0 mi Calm Calm - N/A   Clear
3:15 AM 54.7 °F 22.6 °F 29% 29.91 in 10.0 mi Calm Calm - N/A   Clear
3:35 AM 54.5 °F 21.4 °F 28% 29.91 in 10.0 mi Calm Calm - N/A   Clear
3:55 AM 53.1 °F 22.5 °F 30% 29.92 in 10.0 mi Calm Calm - N/A   Clear
4:15 AM 53.1 °F 21.6 °F 29% 29.92 in 10.0 mi Calm Calm - N/A   Clear
4:35 AM 54.9 °F 22.5 °F 28% 29.92 in 10.0 mi West 3.5 mph - N/A   Clear
4:55 AM 53.6 °F 22.6 °F 30% 29.93 in 10.0 mi Calm Calm - N/A   Clear
5:15 AM 53.6 °F 21.9 °F 29% 29.93 in 10.0 mi Calm Calm - N/A   Clear
5:35 AM 52.3 °F 21.6 °F 30% 29.93 in 10.0 mi WNW 4.6 mph - N/A   Clear
5:55 AM 52.0 °F 21.9 °F 31% 29.93 in 10.0 mi NW 3.5 mph - N/A   Clear
6:15 AM 48.0 °F 21.4 °F 35% 29.95 in 10.0 mi SSE 4.6 mph - N/A   Clear
6:35 AM 50.7 °F 21.2 °F 31% 29.94 in 10.0 mi WSW 5.8 mph - N/A   Clear
6:55 AM 51.6 °F 19.6 °F 28% 29.95 in 10.0 mi SW 4.6 mph - N/A   Clear
7:15 AM 52.5 °F 18.5 °F 26% 29.95 in 10.0 mi SW 6.9 mph - N/A   Clear
7:35 AM 55.9 °F 18.1 °F 23% 29.96 in 10.0 mi West 5.8 mph - N/A   Clear
7:55 AM 57.0 °F 20.1 °F 24% 29.97 in 10.0 mi West 8.1 mph - N/A   Clear
8:15 AM 61.9 °F 19.8 °F 20% 29.98 in 10.0 mi West 5.8 mph - N/A   Clear
8:35 AM 67.5 °F 20.7 °F 17% 29.98 in 10.0 mi WNW 8.1 mph - N/A   Clear
8:55 AM 70.5 °F 21.2 °F 16% 29.98 in 10.0 mi WNW 6.9 mph - N/A   Clear
9:15 AM 71.8 °F 20.8 °F 15% 29.99 in 10.0 mi NW 5.8 mph - N/A   Clear
9:35 AM 73.2 °F 20.8 °F 14% 29.99 in 10.0 mi NW 4.6 mph - N/A   Clear
9:55 AM 75.9 °F 22.6 °F 14% 29.98 in 10.0 mi NW 5.8 mph - N/A   Clear
10:15 AM 79.3 °F 23.7 °F 13% 29.98 in 10.0 mi WNW 6.9 mph - N/A   Clear
10:35 AM 81.5 °F 23.9 °F 12% 29.97 in 10.0 mi West 4.6 mph - N/A   Clear
10:55 AM 83.8 °F 25.0 °F 12% 29.97 in 10.0 mi NW 5.8 mph - N/A   Clear
11:15 AM 86.5 °F 25.2 °F 11% 29.96 in 10.0 mi West 10.4 mph - N/A   Clear
11:35 AM 87.8 °F 26.2 °F 11% 29.96 in 10.0 mi WNW 6.9 mph - N/A   Clear
11:55 AM 89.8 °F 26.1 °F 10% 29.95 in 10.0 mi WNW 5.8 mph - N/A   Clear
12:15 PM 90.7 °F 26.1 °F 10% 29.95 in 10.0 mi North 4.6 mph - N/A   Clear
12:35 PM 91.9 °F 26.6 °F 10% 29.94 in 10.0 mi Calm Calm - N/A   Clear
12:55 PM 93.2 °F 26.6 °F 9% 29.93 in 10.0 mi NNE 4.6 mph - N/A   Clear
1:15 PM 93.7 °F 27.0 °F 9% 29.92 in 10.0 mi NNE 6.9 mph - N/A   Clear
1:35 PM 95.0 °F 27.7 °F 9% 29.90 in 10.0 mi NNE 8.1 mph - N/A   Clear
1:55 PM 96.1 °F 27.9 °F 9% 29.89 in 10.0 mi East 6.9 mph - N/A   Clear
2:15 PM 96.4 °F 28.2 °F 9% 29.88 in 10.0 mi ENE 4.6 mph - N/A   Clear
2:35 PM 95.5 °F 27.3 °F 9% 29.86 in 10.0 mi North 3.5 mph - N/A   Clear
2:55 PM 96.4 °F 28.0 °F 9% 29.86 in 10.0 mi East 5.8 mph - N/A   Clear
3:15 PM 97.7 °F 28.8 °F 9% 29.85 in 10.0 mi SW 6.9 mph - N/A   Clear
3:35 PM 98.1 °F 28.4 °F 9% 29.83 in 10.0 mi South 5.8 mph 16.1 mph N/A   Clear
3:55 PM 99.0 °F 29.3 °F 9% 29.83 in 10.0 mi WSW 16.1 mph 19.6 mph N/A   Clear
4:15 PM 98.8 °F 28.8 °F 8% 29.81 in 10.0 mi WSW 5.8 mph 21.9 mph N/A   Clear
4:35 PM 99.1 °F 28.9 °F 8% 29.80 in 10.0 mi West 13.8 mph 24.2 mph N/A   Clear
4:55 PM 99.1 °F 29.3 °F 9% 29.79 in 10.0 mi WSW 6.9 mph 18.4 mph N/A   Clear
5:10 PM 98.2 °F 28.9 °F 9% 29.79 in 10.0 mi West 13.8 mph 18.4 mph N/A   Clear
5:35 PM 98.1 °F 29.3 °F 9% 29.78 in 10.0 mi West 19.6 mph 28.8 mph N/A   Clear
5:55 PM 97.3 °F 28.9 °F 9% 29.78 in 10.0 mi WSW 4.6 mph - N/A   Clear
6:15 PM 97.9 °F 29.7 °F 9% 29.77 in 10.0 mi West 13.8 mph - N/A   Clear
6:35 PM 95.7 °F 28.6 °F 9% 29.77 in 10.0 mi WNW 9.2 mph - N/A   Clear
6:55 PM 94.6 °F 28.9 °F 10% 29.77 in 10.0 mi WSW 6.9 mph - N/A   Clear
7:15 PM 93.2 °F 29.1 °F 10% 29.77 in 10.0 mi West 6.9 mph - N/A   Clear
7:35 PM 92.5 °F 28.9 °F 10% 29.77 in 10.0 mi WNW 6.9 mph - N/A   Clear
7:55 PM 92.8 °F 29.3 °F 10% 29.77 in 10.0 mi WSW 5.8 mph - N/A   Clear
8:15 PM 92.7 °F 29.3 °F 10% 29.77 in 10.0 mi West 13.8 mph - N/A   Clear
8:35 PM 90.7 °F 28.4 °F 11% 29.78 in 10.0 mi West 11.5 mph - N/A   Clear
8:55 PM 87.8 °F 28.0 °F 12% 29.78 in 10.0 mi West 8.1 mph - N/A   Clear
9:15 PM 85.3 °F 27.9 °F 12% 29.78 in 10.0 mi West 8.1 mph - N/A   Clear
9:35 PM 81.7 °F 27.0 °F 14% 29.79 in 10.0 mi West 8.1 mph - N/A   Clear
9:55 PM 81.9 °F 27.3 °F 14% 29.79 in 10.0 mi West 10.4 mph - N/A   Clear
10:15 PM 81.0 °F 28.0 °F 14% 29.79 in 10.0 mi WNW 4.6 mph - N/A   Clear
10:35 PM 77.0 °F 27.5 °F 16% 29.80 in 10.0 mi West 3.5 mph - N/A   Clear
10:55 PM 75.6 °F 27.3 °F 17% 29.81 in 10.0 mi Calm Calm - N/A   Clear
11:15 PM 74.8 °F 26.4 °F 17% 29.81 in 10.0 mi West 3.5 mph - N/A   Clear
11:35 PM 72.5 °F 26.6 °F 18% 29.82 in 10.0 mi Calm Calm - N/A   Clear